{"data":{"norad_id":59774,"intl_designator":"2024-092B","name":"2024-092B","alt_names":[],"object_type":"PAYLOAD","status":"ACTIVE","operator":null,"country":"CIS","launch_date":"2024-05-16","launch_site_code":"PLMSC","launch_vehicle":null,"mission":null,"orbit_class":"UNKNOWN","rcs_meters":null,"size_class":null,"mass_kg":null,"dimensions":null,"purposes":[],"wikipedia_slug":null,"has_3d_model":false,"image_url":null,"decayed_at":null,"tle_current":{"epoch":"2026-05-25T04:35:00.354912Z","epoch_age_seconds":68916,"freshness":"FRESH","line1":"1 59774U 24092B   26145.19097633  .00009385  00000+0  34374-3 0  9993","line2":"2 59774  97.6456 273.6852 0007641 259.4722 100.5656 15.28221564112028","mean_motion":15.28221564,"eccentricity":0.0007641,"inclination_deg":97.6456,"raan_deg":273.6852,"arg_perigee_deg":259.4722,"mean_anomaly_deg":100.5656,"bstar":0.00034374,"rev_number":11202,"period_min":94.227174509363,"perigee_km":475.88752980912,"apogee_km":486.3698596438,"semimajor_km":6859.2656947265,"source":"CELESTRAK","updated_at":"2026-05-25T13:38:01.630082Z"}}}